Regional Weather Roundup
Issued by NWS

Home | Current Version | Previous Version | Text Only | Print | Product List | Glossary On
Versions: 1 2 3 4 5 6 7 8 9 10 11 12 13 14 15 16 17 18 19 20 21 22 23 24 25 26 27
000
ASUS44 KJAN 240010
RWRMS

MISSISSIPPI HOURLY WEATHER ROUNDUP
NATIONAL WEATHER SERVICE JACKSON MS
700 PM CDT WED AUG 23 2017

NOTE: "FAIR: INDICATES FEW OR NO CLOUDS BELOW 12,000 FEET WITH NO
SIGNIFICANT WEATHER AND/OR OBSTRUCTIONS TO VISIBILITY.

MSZ001>002-007>008-010>013-018>021-025>028-034>036-240100-
NORTHWEST MISSISSIPPI

CITY           SKY/WX    TMP DP  RH WIND       PRES   REMARKS
BATESVILLE     MOCLDY    78  71  77 CALM      29.96R
CLARKSDALE       N/A     82  73  74 N9        29.95S
CLEVELAND      FAIR      83  72  70 NE8       29.92S
GREENWOOD      PTCLDY    85  73  67 NE7       29.91S HX  91
6HR MIN TEMP:  85; 6HR MAX TEMP:  92;

GREENVILLE     CLEAR     82  71  69 N8        29.91R
6HR MIN TEMP:  82; 6HR MAX TEMP:  91;

OLIVE BRANCH   MOCLDY   N/A N/A N/A CALM      29.97S
OXFORD         FAIR      77  68  73 N3        29.97S
TUNICA           N/A     75  68  78 N8        29.97R
WINONA         FAIR      82  73  73 NE3       29.92S
$$

MSZ003>006-009-014>017-022>024-029>033-037>039-240100-
NORTHEAST MISSISSIPPI

CITY           SKY/WX    TMP DP  RH WIND       PRES   REMARKS
COLUMBUS AFB   CLEAR     83  73  70 N7        29.91S
6HR MIN TEMP:  83; 6HR MAX TEMP:  89; 6HR PCP: TRACE;

GOLDN TRIANGLE CLEAR     88  68  51 N7        29.88S HX  91
STARKVILLE     FAIR      82  68  61 N5        29.93S
TUPELO         MOCLDY    82  66  58 N10       29.94S
6HR MIN TEMP:  82; 6HR MAX TEMP:  88;

$$

MSZ040-058-240100-
CENTRAL MISSISSIPPI

CITY           SKY/WX    TMP DP  RH WIND       PRES   REMARKS
JACKSON INTL   MOCLDY    86  76  71 NE5       29.89R THUNDER HX  96
6HR MIN TEMP:  86; 6HR MAX TEMP:  93;

JACKSON HAWKNS PTCLDY    87  77  72 NE3       29.89S THUNDER HX  99
6HR MIN TEMP:  84; 6HR MAX TEMP:  93;

MADISON        FAIR      82  73  74 CALM      29.89R
MERIDIAN KEY   CLEAR     87  73  62 N12       29.89S HX  94
6HR MIN TEMP:  87; 6HR MAX TEMP:  94;

MERIDIAN NAS   NOT AVBL
RAYMOND          N/A     82  72  69 SW9G17    29.89R
VICKSBURG VKS  MOCLDY    82  73  74 VRB7      29.88R
$$

MSZ059>079-240100-
SOUTH MISSISSIPPI

CITY           SKY/WX    TMP DP  RH WIND       PRES   REMARKS
COLUMBIA       FAIR      84 N/A N/A CALM      29.89S
HATTIESBURG    CLOUDY    85  76  74 S6        29.87R HX  94
6HR MIN TEMP:  87; 6HR MAX TEMP:  94;

LAUREL         FAIR      87  72  61 NE5       29.88R HX  94
MCCOMB         PTCLDY    86  75  69 S3        29.88F HX  95
6HR MIN TEMP:  86; 6HR MAX TEMP:  93;

NATCHEZ        CLOUDY    81  74  79 NE5       29.90S
6HR MIN TEMP:  81; 6HR MAX TEMP:  92;

PINE BELT      CLEAR     84  79  85 CALM      29.88S HX  96
6HR MIN TEMP:  84; 6HR MAX TEMP:  94; 6HR PCP: TRACE;

$$

MSZ080>082-240100-
COASTAL MISSISSIPPI

CITY           SKY/WX    TMP DP  RH WIND       PRES   REMARKS
BAY ST LOUIS   PTCLDY    86  75  70 SW5       29.88R HX  95
BILOXI         PTCLDY    85  74  70 S3        29.88R HX  93
6HR MIN TEMP:  85; 6HR MAX TEMP:  90;

PASCAGOULA     LGT RAIN  77  72  84 CALM      29.89S
6HR MIN TEMP:  75; 6HR MAX TEMP:  93; 6HR PCP:  0.44;

GULFPORT       PTCLDY    87  76  69 S5        29.88R HX  97
6HR MIN TEMP:  87; 6HR MAX TEMP:  91; 6HR PCP: TRACE;

$$

LAZ007>009-015>016-023>026-240100-
NORTHEAST LOUISIANA

CITY           SKY/WX    TMP DP  RH WIND       PRES   REMARKS
BASTROP        FAIR      78  77  98 CALM      29.91F
TALLULAH/VBURG CLOUDY    82  75  79 VRB6      29.89S
6HR MIN TEMP:  82; 6HR MAX TEMP:  93;

VIDALIA          N/A    N/A N/A N/A MISG      29.88S
$$




USA.gov is the U.S. government's official web portal to all federal, state and local government web resources and services.